Weather History for Montpelier, VT

Change the Weather History Date:

Wednesday, February 20, 2013

  Actual Average Record
Temperature  
Mean Temperature 24 °F 21 °F  
Max Temperature 30 °F 32 °F 56 °F (1994)
Min Temperature 19 °F 11 °F -20 °F (1966)
Degree Days  
Heating Degree Days 40 44  
Month to date heating degree days 909 920  
Since 1 July heating degree days 5254 5565  
Moisture  
Dew Point 20 °F    
Average Humidity 78    
Maximum Humidity 100    
Minimum Humidity 55    
Precipitation  
Precipitation 0.00 in 0.07 in 0.36 in (1971)
Month to date precipitation 0.71 1.48  
Year to date precipitation 1.66 3.93  
Sea Level Pressure  
Sea Level Pressure 29.64 in    
Wind  
Wind Speed 9 mph (WNW)    
Max Wind Speed 17 mph    
Max Gust Speed 27 mph    
Visibility 4 miles    
Events Fog , Snow    
T = Trace of Precipitation, MM = Missing Value Source: NWS Daily Summary

Daily Weather History Graph

Daily Weather History Graph

Search for Another Location

Airport:

Trip Planner

Search our weather history database for the weather conditions in past years. The results will help you decide how hot, cold, wet, or windy it might be!

Date:

Astronomy

Feb. 20, 2013 Rise Set
Actual Time 6:41 AM EST 5:26 PM EST
Civil Twilight 6:12 AM EST 5:56 PM EST
Nautical Twilight 5:38 AM EST 6:29 PM EST
Astronomical Twilight 5:05 AM EST 7:03 PM EST
Moon 12:39 PM EST (2/20) 3:06 AM EST (2/20)
Length of Visible Light 11h 43m
Length of Day
10h 45m
Waxing Gibbous, 76% of the Moon is Illuminated
Feb 20
Waxing Gibbous
Feb 25
Full
Mar 4
Last Quarter
Mar 11
New
Mar 19
First Quarter

Hourly Weather History & Observations

Time (EST) Temp. Windchill Dew Point Humidity Pressure Visibility Wind Dir Wind Speed Gust Speed Precip Events Conditions
12:04 AM 30.2 °F - 30.2 °F 100% 29.58 in 0.8 mi Calm Calm - 0.01 in Snow Light Snow
12:24 AM 30.2 °F - 30.2 °F 100% 29.56 in 0.5 mi Calm Calm - 0.02 in Fog , Snow Snow
12:51 AM 30.0 °F 21.7 °F 30.0 °F 100% 29.61 in 0.5 mi NW 9.2 mph 20.7 mph 0.05 in Fog , Snow Snow
12:58 AM 30.2 °F 21.3 °F 30.2 °F 100% 29.56 in 0.8 mi WNW 10.4 mph 20.7 mph 0.00 in Snow Light Snow
1:07 AM 28.4 °F 18.0 °F 28.4 °F 100% 29.56 in 1.0 mi NW 12.7 mph 21.9 mph 0.00 in Snow Light Snow
1:10 AM 28.4 °F 17.5 °F 28.4 °F 100% 29.56 in 1.2 mi WNW 13.8 mph 21.9 mph 0.00 in Snow Light Snow
1:21 AM 28.4 °F 17.5 °F 28.4 °F 100% 29.57 in 1.8 mi NW 13.8 mph 20.7 mph 0.00 in Snow Light Snow
1:26 AM 28.4 °F 17.0 °F 26.6 °F 93% 29.57 in 2.0 mi WNW 15.0 mph 21.9 mph 0.00 in Snow Light Snow
1:36 AM 28.4 °F 16.2 °F 26.6 °F 93% 29.58 in 2.0 mi WNW 17.3 mph 27.6 mph 0.00 in Snow Light Snow
1:47 AM 28.4 °F 17.0 °F 26.6 °F 93% 29.57 in 1.5 mi WNW 15.0 mph 21.9 mph 0.00 in Snow Light Snow
1:51 AM 27.0 °F 15.2 °F 26.1 °F 96% 29.61 in 1.5 mi NW 15.0 mph 24.2 mph 0.00 in Snow Light Snow
2:03 AM 26.6 °F 14.3 °F 24.8 °F 93% 29.57 in 1.2 mi WNW 16.1 mph 23.0 mph 0.00 in Snow Light Snow
2:21 AM 26.6 °F 13.4 °F 24.8 °F 93% 29.57 in 1.0 mi WNW 18.4 mph 26.5 mph 0.00 in Snow Light Snow
2:28 AM 26.6 °F 14.3 °F 24.8 °F 93% 29.58 in 0.8 mi WNW 16.1 mph 26.5 mph 0.00 in Snow Light Snow
2:51 AM 25.0 °F 11.7 °F 24.1 °F 96% 29.62 in 0.8 mi NW 17.3 mph 26.5 mph 0.00 in Snow Light Snow
2:59 AM 24.8 °F 12.9 °F 24.8 °F 100% 29.58 in 1.2 mi NW 13.8 mph 26.5 mph 0.00 in Snow Light Snow
3:06 AM 24.8 °F 12.9 °F 23.0 °F 93% 29.58 in 2.0 mi NW 13.8 mph 21.9 mph 0.01 in Snow Light Snow
3:10 AM 24.8 °F 13.4 °F 23.0 °F 93% 29.58 in 3.0 mi NW 12.7 mph 20.7 mph 0.01 in Snow Light Snow
3:51 AM 25.0 °F 14.2 °F 21.9 °F 88% 29.62 in 4.0 mi NW 11.5 mph 19.6 mph 0.01 in Snow Light Snow
4:35 AM 24.8 °F 16.1 °F 23.0 °F 93% 29.58 in 5.0 mi NW 8.1 mph - 0.00 in Snow Light Snow
4:51 AM 25.0 °F 17.1 °F 23.0 °F 92% 29.62 in 4.0 mi NW 6.9 mph - 0.00 in Snow Light Snow
5:51 AM 25.0 °F 19.3 °F 19.9 °F 81% 29.63 in 10.0 mi West 4.6 mph - 0.00 in   Overcast
5:58 AM 24.8 °F 16.9 °F 19.4 °F 80% 29.58 in 10.0 mi West 6.9 mph - N/A   Overcast
6:10 AM 24.8 °F 20.5 °F 19.4 °F 80% 29.58 in 10.0 mi West 3.5 mph - N/A   Overcast
6:51 AM 25.0 °F 17.1 °F 18.0 °F 75% 29.63 in 10.0 mi West 6.9 mph - N/A   Scattered Clouds
7:51 AM 25.0 °F 19.3 °F 18.0 °F 75% 29.64 in 10.0 mi WNW 4.6 mph - N/A   Overcast
8:00 AM 24.8 °F 16.9 °F 17.6 °F 74% 29.59 in 7.0 mi WNW 6.9 mph - 0.00 in Snow Light Snow
8:07 AM 24.8 °F 19.1 °F 19.4 °F 80% 29.59 in 6.0 mi WNW 4.6 mph - 0.00 in Snow Light Snow
8:51 AM 25.0 °F 17.1 °F 19.0 °F 78% 29.63 in 10.0 mi Variable 6.9 mph - 0.00 in   Overcast
9:51 AM 26.1 °F 17.6 °F 16.0 °F 66% 29.64 in 10.0 mi WNW 8.1 mph 20.7 mph N/A   Overcast
10:51 AM 26.1 °F 16.2 °F 12.9 °F 58% 29.64 in 10.0 mi West 10.4 mph 19.6 mph N/A   Overcast
11:51 AM 25.0 °F 14.2 °F 14.0 °F 63% 29.64 in 10.0 mi NW 11.5 mph 19.6 mph N/A   Overcast
12:51 PM 25.0 °F 14.2 °F 15.1 °F 66% 29.64 in 9.0 mi WNW 11.5 mph - N/A   Overcast
1:51 PM 25.0 °F 14.2 °F 15.1 °F 66% 29.64 in 9.0 mi WNW 11.5 mph 18.4 mph N/A   Overcast
2:51 PM 25.0 °F 11.7 °F 14.0 °F 63% 29.65 in 10.0 mi WNW 17.3 mph 21.9 mph 0.00 in   Overcast
3:51 PM 25.0 °F 14.2 °F 14.0 °F 63% 29.65 in 10.0 mi West 11.5 mph 17.3 mph 0.00 in   Overcast
4:51 PM 24.1 °F 14.4 °F 12.9 °F 62% 29.68 in 10.0 mi WNW 9.2 mph 16.1 mph N/A   Overcast
5:51 PM 21.9 °F 15.7 °F 18.0 °F 85% 29.71 in 5.0 mi Variable 4.6 mph - 0.00 in Snow Light Snow
6:02 PM 21.2 °F 16.4 °F 17.6 °F 86% 29.66 in 4.0 mi West 3.5 mph - 0.00 in Snow Light Snow
6:24 PM 21.2 °F 13.6 °F 17.6 °F 86% 29.66 in 4.0 mi West 5.8 mph - 0.00 in Snow Light Snow
6:51 PM 21.0 °F 12.4 °F 17.1 °F 85% 29.73 in 2.5 mi West 6.9 mph - 0.00 in Snow Light Snow
7:10 PM 21.2 °F 12.6 °F 17.6 °F 86% 29.67 in 1.8 mi WSW 6.9 mph - 0.00 in Snow Light Snow
7:51 PM 19.9 °F 10.1 °F 18.0 °F 92% 29.73 in 1.2 mi West 8.1 mph - 0.00 in Snow Light Snow
8:20 PM 19.4 °F 11.5 °F 17.6 °F 93% 29.68 in 1.0 mi WSW 5.8 mph - 0.00 in Snow Light Snow
8:40 PM 19.4 °F 11.5 °F 17.6 °F 93% 29.68 in 1.0 mi West 5.8 mph - 0.00 in Snow Light Snow
8:51 PM 19.9 °F 11.1 °F 18.0 °F 92% 29.74 in 1.0 mi WSW 6.9 mph - 0.00 in Snow Light Snow
9:51 PM 19.4 °F 9.5 °F 17.6 °F 93% 29.69 in 1.0 mi West 8.1 mph - N/A Snow Light Snow
10:25 PM 19.4 °F 9.5 °F 17.6 °F 93% 29.70 in 0.8 mi West 8.1 mph - 0.01 in Snow Light Snow
10:36 PM 19.4 °F 9.5 °F 17.6 °F 93% 29.70 in 1.0 mi West 8.1 mph - 0.01 in Snow Light Snow
10:42 PM 19.4 °F 10.4 °F 17.6 °F 93% 29.70 in 1.5 mi West 6.9 mph - 0.01 in Snow Light Snow
10:49 PM 19.4 °F 10.4 °F 17.6 °F 93% 29.70 in 2.0 mi West 6.9 mph - 0.01 in Snow Light Snow
10:51 PM 19.9 °F 12.1 °F 17.1 °F 89% 29.76 in 2.0 mi West 5.8 mph - 0.01 in Snow Light Snow
11:28 PM 19.4 °F 7.9 °F 17.6 °F 93% 29.71 in 1.2 mi West 10.4 mph 19.6 mph 0.00 in Snow Light Snow
11:46 PM 19.4 °F 7.2 °F 15.8 °F 86% 29.72 in 1.5 mi WNW 11.5 mph 19.6 mph 0.00 in Snow Light Snow
11:51 PM 19.9 °F 7.9 °F 16.0 °F 85% 29.78 in 1.5 mi WNW 11.5 mph - 0.00 in Snow Light Snow
11:58 PM 19.4 °F 7.9 °F 15.8 °F 86% 29.72 in 1.2 mi WNW 10.4 mph - 0.00 in Snow Light Snow